Cloud_Cover
5 18 5 4 0 0 0 0 0 0 0 0 0 0 0 0 0 0 0 0 0 0 0 0 0 0 0 0 0 0 0 0 0 0 0 0 0 0 0 0 0 30 16
0 0 0 0 0 0 0 0 0 0 0 0 0 0 0 0 0 0 0 0 0 0 0 0 0 0 0 0 0 0 0 0 0 0 0 0 0 0 0 1 3 0 1
0 0 0 0 0 0 0 0 0 0 0 0 0 0 0 0 0 0 0 0 0 0 0 0 0 0 89 19 0 0 0 0 0 4 12 5 4 1 1 21 17 12 26
0 0 0 0 0 0 0 0 0 0 0 0 0 0 13 13 0 19 4 0 0 0 0 0 0 0 0 0 0 0 15 54 6 7 18 70 84 68 5 0 65 33 28
0 0 0 0 0 0 2 5 1 0 0 0 0 0 3 40 36 94 100 54 0 0 2 38 0 0 10 62 0 1 0 0 20 9 100 98 100 100 92 30 5 1 22
0 0 0 0 5 34 22 5 2 0 3 5 5 5 4 100 100 99 84 100 1 0 0 0 2 89 100 100 21 1 0 0 5 27 80 98 99 100 100 99 100 51 1
0 0 7 46 38 5 5 5 5 5 5 2 0 0 0 53 99 99 100 100 57 0 0 5 38 100 100 93 1 0 0 32 81 100 100 100 100 100 100 100 99 100 33
41 76 98 100 96 15 5 5 5 3 0 0 0 0 0 0 25 100 100 88 65 53 11 86 100 100 100 92 0 93 0 63 100 100 100 100 100 100 100 100 100 100 97
45 20 59 100 98 27 5 5 4 0 0 0 0 0 0 0 5 53 95 68 21 94 99 100 100 100 100 25 0 54 18 27 93 100 100 100 100 100 99 100 100 100 100
100 92 50 36 7 4 0 0 0 0 0 0 0 0 0 5 25 80 100 94 52 100 100 100 100 100 100 97 0 0 42 0 3 48 62 56 30 91 100 96 100 100 100
41 5 2 1 0 0 0 0 0 0 0 0 0 2 5 98 100 100 100 82 100 100 100 100 100 100 100 100 56 0 24 75 52 18 100 31 52 48 78 100 100 99 96
0 0 0 0 0 0 0 0 0 0 0 5 5 19 100 100 100 100 47 57 95 100 100 100 100 100 100 100 100 70 8 2 5 5 3 20 66 99 84 34 8 3 59
0 0 0 4 0 0 0 0 1 4 33 98 98 100 100 100 100 49 14 25 79 100 100 100 100 100 100 100 100 100 100 100 88 23 90 59 4 4 0 4 8 1 5
3 0 3 2 5 5 40 90 52 24 100 100 100 100 100 30 5 5 5 5 18 61 97 50 94 68 88 100 100 100 100 100 100 100 100 100 99 71 58 60 55 36 25
0 0 5 31 84 100 93 78 100 100 100 100 100 100 60 5 5 5 5 5 5 5 0 0 0 4 24 30 60 100 100 100 100 100 100 100 100 100 100 100 100 100 100
0 2 89 23 21 5 86 99 100 100 100 100 98 95 8 5 5 5 5 5 5 0 0 0 0 0 32 100 77 100 100 100 100 100 100 100 100 100 100 100 100 100 100
0 1 5 38 76 5 5 11 48 75 99 70 72 5 43 6 5 5 5 5 0 0 0 0 0 0 0 3 2 5 6 72 99 100 100 100 100 100 100 100 100 100 100
0 0 5 20 5 5 15 10 77 13 98 54 16 31 32 7 5 5 5 0 0 0 0 0 0 0 0 2 4 1 27 55 70 37 97 99 99 100 100 100 100 100 75
0 0 3 4 5 0 2 5 48 23 82 5 35 16 9 5 5 5 0 0 0 0 0 0 0 0 0 0 5 35 56 48 7 32 81 99 92 90 100 100 99 91 91
0 0 0 4 0 0 0 3 5 5 5 5 5 4 5 5 0 0 0 0 0 0 0 0 0 0 2 16 37 19 5 7 13 77 48 22 35 87 100 100 100 100 100
0 0 0 0 0 0 4 0 5 5 3 0 0 0 0 0 0 0 0 0 0 0 0 0 1 5 9 5 30 6 5 9 73 85 100 100 99 95 91 50 34 39 5
2 0 0 0 0 0 4 5 5 2 1 0 0 0 0 0 0 0 0 0 0 0 1 4 2 5 5 5 5 10 38 43 24 32 31 82 100 100 67 27 69 20 5
5 5 2 5 1 3 5 0 0 0 0 0 0 0 0 0 0 0 0 0 0 4 4 28 88 39 6 5 8 28 14 12 54 12 16 5 54 100 45 15 22 8 5
79 36 20 5 5 6 5 4 5 5 2 0 1 0 0 0 0 0 1 4 0 5 28 5 5 5 6 11 69 28 81 35 83 98 83 58 85 80 71 58 43 61 40
82 96 100 100 53 6 5 5 5 5 5 5 5 5 5 5 5 5 9 5 5 5 16 48 47 26 92 97 95 98 100 100 78 77 29 91 92 95 79 65 38 43 73
76 88 100 100 100 100 99 32 57 43 6 5 5 18 26 5 9 25 62 94 95 44 21 99 100 100 100 100 100 100 100 93 69 82 62 80 33 12 24 73 86 86 99